Weather History for YBPN - December, 2013

Change the Weather History Date:

Tuesday, December 3, 2013

  Actual Average Record
Temperature  
Mean Temperature 75 °F -  
Max Temperature 84 °F - - ()
Min Temperature 66 °F - - ()
Cooling Degree Days 10    
Growing Degree Days 25 (Base 50)    
Moisture  
Dew Point 63 °F    
Average Humidity 66    
Maximum Humidity 94    
Minimum Humidity 35    
Precipitation  
Precipitation 0.00 in - - ()
Sea Level Pressure  
Sea Level Pressure 29.93 in    
Wind  
Wind Speed 7 mph ()    
Max Wind Speed 16 mph    
Max Gust Speed 26 mph    
Visibility 6.5 miles    
Events      
T = Trace of Precipitation, MM = Missing Value Source: Averaged Metar Reports

Daily Weather History Graph

Daily Weather History Graph

Search for Another Location

Airport or City:

Trip Planner

Search our weather history database for the weather conditions in past years. The results will help you decide how hot, cold, wet, or windy it might be!

Date:

Astronomy

Dec. 03, 2013 Rise Set
Actual Time 5:16 AM AEST 6:34 PM AEST
Civil Twilight 4:52 AM AEST 6:58 PM AEST
Nautical Twilight 4:23 AM AEST 7:27 PM AEST
Astronomical Twilight 3:53 AM AEST 7:57 PM AEST
Moon 5:15 AM AEST (12/3) 6:47 PM AEST (12/3)
Length of Visible Light 14h 06m
Length of Day
13h 17m
New Moon, 0% of the Moon is Illuminated
Dec 3
New Moon
Dec 10
First Quarter
Dec 17
Full
Dec 25
Last Quarter
Jan 1
New

Hourly Weather History & Observations

Time (AEST) Temp. Heat Index Dew Point Humidity Pressure Visibility Wind Dir Wind Speed Gust Speed Precip Events Conditions
12:00 AM 69 °F - 63 °F 76% 30.00 in - Calm Calm - -  
12:00 AM 68.0 °F - 62.6 °F 83% 30.01 in 6.2 mi Calm Calm - N/A   Scattered Clouds
1:00 AM 68.0 °F - 64.4 °F 88% 29.98 in 6.2 mi WSW 4.6 mph - N/A   Scattered Clouds
2:00 AM 68.0 °F - 62.6 °F 83% 29.95 in 6.2 mi SSW 6.9 mph - N/A   Mostly Cloudy
3:00 AM 67 °F - 64 °F 85% 29.94 in - SSW 5.8 mph - -  
3:00 AM 66.2 °F - 64.4 °F 94% 29.95 in 6.2 mi SSW 6.9 mph - N/A   Scattered Clouds
4:00 AM 68.0 °F - 64.4 °F 88% 29.92 in 6.2 mi SSW 8.1 mph - N/A   Mostly Cloudy
5:00 AM 66.2 °F - 64.4 °F 94% 29.92 in 6.2 mi South 5.8 mph - N/A   Scattered Clouds
6:00 AM 69 °F - 65 °F 82% 29.95 in - SSW 5.8 mph - -  
6:00 AM 69.8 °F - 64.4 °F 83% 29.95 in 6.2 mi SSW 4.6 mph - N/A   Scattered Clouds
7:00 AM 73.4 °F - 64.4 °F 73% 29.95 in 6.2 mi SW 3.5 mph - N/A   Scattered Clouds
8:00 AM 80.6 °F 81.1 °F 59.0 °F 48% 29.98 in 6.2 mi ESE 15.0 mph - N/A   Scattered Clouds
9:00 AM 80 °F - 58 °F 37% 29.99 in 9 mi ESE 15.0 mph - -   Smoke
9:00 AM 80.6 °F 81.1 °F 59.0 °F 48% 29.98 in 6.2 mi ESE 16.1 mph - N/A   Scattered Clouds
10:00 AM 84.2 °F 85.6 °F 64.4 °F 51% 29.95 in 6.2 mi ESE 15.0 mph - N/A   Scattered Clouds
11:00 AM 82.4 °F 83.4 °F 62.6 °F 51% 29.95 in 6.2 mi ESE 16.1 mph - N/A   Scattered Clouds
12:00 PM 83 °F - 60 °F 36% 29.94 in - SE 15.0 mph - -  
12:00 PM 84.2 °F 85.6 °F 64.4 °F 51% 29.92 in 6.2 mi ESE 13.8 mph 26.5 mph N/A   Unknown
1:00 PM 84.2 °F 85.6 °F 64.4 °F 51% 29.92 in 6.2 mi ESE 15.0 mph - N/A   Unknown
2:00 PM 84.2 °F 85.0 °F 62.6 °F 48% 29.89 in 6.2 mi ESE 15.0 mph - N/A   Scattered Clouds
3:00 PM 83 °F - 60 °F 35% 29.88 in 11 mi ESE 13.8 mph - -   Haze
3:00 PM 84.2 °F 84.4 °F 60.8 °F 45% 29.89 in 6.2 mi ESE 13.8 mph - N/A   Unknown
4:00 PM 82.4 °F 82.9 °F 60.8 °F 48% 29.86 in 6.2 mi ESE 13.8 mph - N/A   Unknown
5:00 PM 80.6 °F 81.5 °F 60.8 °F 51% 29.86 in 6.2 mi ESE 13.8 mph - N/A   Unknown
6:00 PM 78 °F - 62 °F 48% 29.88 in - ESE 10.4 mph - -  
6:00 PM 78.8 °F - 60.8 °F 54% 29.89 in 6.2 mi ESE 9.2 mph - N/A   Unknown
7:00 PM 73.4 °F - 62.6 °F 69% 29.89 in 6.2 mi ESE 6.9 mph - N/A   Unknown
8:00 PM 71.6 °F - 62.6 °F 73% 29.89 in 6.2 mi SSE 3.5 mph - N/A   Unknown
9:00 PM 70 °F - 63 °F 72% 29.92 in - SE 3.5 mph - -  
9:00 PM 69.8 °F - 64.4 °F 83% 29.92 in 6.2 mi SE 3.5 mph - N/A   Unknown
10:00 PM 69.8 °F - 64.4 °F 83% 29.92 in 6.2 mi ESE 4.6 mph - N/A   Unknown
11:00 PM 66.2 °F - 62.6 °F 88% 29.92 in 6.2 mi SSE 2.3 mph - N/A   Unknown